Location: Newark
(44.2003°N, 3.2583°E)
Time: 08:13:14
(UTC+00:00)

SR - Pass Details

Date: 27 October 2019
Orbit: 574 x 882 km, 66.7° (Epoch: 17 November)

Event Time Altitude Azimuth Distance (km) Brightness Sun altitude
Rises 19:12:28 0° 182° (S) 3,037 - -27.1°
Reaches altitude 10° 19:14:53 10° 173° (S) 2,176 - -27.5°
Maximum altitude 19:19:19 33° 110° (ESE) 1,255 - -28.3°
Drops below altitude 10° 19:24:07 10° 48° (NE) 2,374 - -29.1°
Sets 19:26:51 0° 40° (NE) 3,357 - -29.6°
